Regional Weather Roundup
Issued by NWS

Home | Current Version | Previous Version | Text Only | Print | Product List | Glossary Off
Versions: 1 2 3 4 5 6 7 8 9 10 11 12 13 14 15 16 17 18 19 20 21 22 23 24 25 26 27 28 29 30 31 32 33 34 35 36 37 38 39 40 41 42 43 44 45 46 47 48 49 50

000
ASUS44 KMEG 190200
RWRTN
TENNESSEE HOURLY STATE WEATHER ROUNDUP
NATIONAL WEATHER SERVICE MEMPHIS TN
800 PM CST SAT NOV 18 2017

TNZ002-004-019-021-049-052-054-088>092-190300-
WEST TENNESSEE

CITY           SKY/WX    TMP DP  RH WIND       PRES   REMARKS
MEMPHIS INTL   PTCLDY    49  38  65 NW15G21   30.00R
NWS MEMPHIS      N/A     49 N/A N/A MISG        N/A
JACKSON        MOCLDY    49  40  71 NW20      29.96R
DYERSBURG      CLOUDY    48  39  71 NW7G17    29.98R
$$

TNZ008-025-027-028-033-062-065-066-190300-
NORTH MIDDLE TENNESSEE

CITY           SKY/WX    TMP DP  RH WIND       PRES   REMARKS
NASHVILLE      CLOUDY    47  41  80 NW14G24   29.80R
CLARKSVILLE    CLOUDY    43  36  76 NW24G32   29.86R
SMYRNA         CLOUDY    46  43  89 NW20      29.81R
CROSSVILLE     LGT RAIN  48  46  93 W30G39    29.66R
$$

TNZ061-075-076-078-094-096-097-190300-
SOUTH MIDDLE TENNESSEE

CITY           SKY/WX    TMP DP  RH WIND       PRES   REMARKS
WINCHESTER     CLOUDY    54  48  82 NW17      29.76R
$$

TNZ017-018-042-046-047-190300-
NORTHEAST TENNESSEE

CITY           SKY/WX    TMP DP  RH WIND       PRES   REMARKS
TRI CITIES     CLOUDY    65  52  62 S12       29.48F
$$

TNZ012-013-036-069-073-074-190300-
CENTRAL EAST TENNESSEE

CITY           SKY/WX    TMP DP  RH WIND       PRES   REMARKS
KNOXVILLE      LGT RAIN  66  61  84 SW25G38   29.48F
OAK RIDGE      RAIN      59  58  96 W12G21    29.56R FOG
$$

TNZ083-085-099-190300-
SOUTHEAST TENNESSEE

CITY           SKY/WX    TMP DP  RH WIND       PRES   REMARKS
CHATTANOOGA    LGT RAIN  62  55  77 NW17G29   29.63R
$$

SKY/WX REPORTED AS FAIR MEANS FEW OR NO CLOUDS BELOW
12 THOUSAND FEET.





USA.gov is the U.S. government's official web portal to all federal, state and local government web resources and services.